Location: Barton Flats Campground
(34.1722°N, 116.8753°W)
Time: 20:17:30
(UTC+00:00)

Delta 2 Rocket - Pass Details

Date: 08 August 2020
Orbit: 416 x 807 km, 35.6° (Epoch: 01 October)

Event Time Altitude Azimuth Distance (km) Brightness Sun altitude
Exits shadow 12:24:05 10° 266° (W) 1,662 5.2 -8.5°
Reaches altitude 10° 12:24:10 10° 267° (W) 1,630 5.2 -8.5°
Maximum altitude 12:27:52 76° 352° (N) 527 3.3 -7.8°
Drops below altitude 10° 12:32:05 10° 80° (E) 1,843 7.5 -7.0°
Sets 12:34:32 0° 82° (E) 2,816 8.8 -6.5°
